Location: Pl�tzky
(52.0521°N, 11.8020°E)
Time: 13:30:10
(UTC+00:00)

CENTAUR R/B - Pass Details

Date: 22 November 2019
Orbit: 779 x 1409 km, 63.4° (Epoch: 01 December)

Event Time Altitude Azimuth Distance (km) Brightness Sun altitude
Rises 16:50:15 0° 305° (NW) 3,926 6.3 -14.5°
Reaches altitude 10° 16:52:57 10° 312° (NW) 3,057 5.6 -14.9°
Maximum altitude 17:00:05 46° 24° (NNE) 1,662 3.4 -16.0°
Enters shadow 17:05:05 23° 85° (E) 2,533 4.0 -16.7°
